VE7GEL Weather Reports


time (UTC)temp
C
wind
direction
speed
KPH
gust
KPH
rain 1hr
cm
rain 24hr
cm
rain mn
cm
humidity
%
barometer
mb
20260505023155 20 23 4.8 16.1 0.00 0.00 0.00 51 1008.0
20260505021654 20 199 8.0 17.7 0.00 0.00 0.00 51 1008.1
20260505020155 20 206 8.0 14.5 0.00 0.00 0.00 54 1008.2
20260505020002 20 187 8.0 14.5 0.00 0.00 0.00 54 1008.5
20260505014655 20 180 6.4 14.5 0.00 0.00 0.00 53 1008.3
20260505013153 21 179 8.0 14.5 0.00 0.00 0.00 52 1008.4
20260505013002 21 235 8.0 12.9 0.00 0.00 0.00 52 1008.7
20260505011653 22 207 4.8 11.3 0.00 0.00 0.00 50 1008.4
20260505010152 20 230 4.8 11.3 0.00 0.00 0.00 57 1008.5
20260505004653 21 341 4.8 9.7 0.00 0.00 0.00 56 1008.6
20260505003151 22 224 3.2 12.9 0.00 0.00 0.00 48 1008.6
20260505001652 20 215 4.8 17.7 0.00 0.00 0.00 55 1008.6
20260505001503 20 215 4.8 17.7 0.00 0.00 0.00 58 1008.9
20260505000150 20 4 3.2 8.0 0.00 0.00 0.00 58 1008.7
20260504234650 19 239 3.2 8.0 0.00 0.00 0.00 62 1008.9
20260504233149 19 319 3.2 8.0 0.00 0.00 0.00 62 1008.9
20260504231650 20 310 1.6 6.4 0.00 0.00 0.00 60 1009.0
20260504231502 19 0 1.6 6.4 0.00 0.00 0.00 60 1009.4
20260504230150 19 0 1.6 6.4 0.00 0.00 0.00 60 1009.2
20260504224648 18 174 3.2 8.0 0.00 0.00 0.00 62 1009.4
20260504223151 18 254 3.2 8.0 0.00 0.00 0.00 61 1009.6
20260504223002 18 0 3.2 8.0 0.00 0.00 0.00 61 1009.9
20260504221646 18 198 3.2 9.7 0.00 0.00 0.00 60 1009.9
20260504220148 17 262 1.6 9.7 0.00 0.00 0.00 65 1009.8
20260504220003 17 121 1.6 9.7 0.00 0.00 0.00 65 1010.1
20260504214646 18 217 3.2 9.7 0.00 0.00 0.00 62 1009.9
20260504214502 18 166 3.2 9.7 0.00 0.00 0.00 63 1010.2
20260504213146 17 0 1.6 6.4 0.00 0.00 0.00 63 1009.9
20260504213003 17 70 1.6 6.4 0.00 0.00 0.00 63 1010.2
20260504211646 18 194 1.6 6.4 0.00 0.00 0.00 62 1010.0
20260504211502 18 242 3.2 6.4 0.00 0.00 0.00 60 1010.4
20260504210145 17 208 1.6 6.4 0.00 0.00 0.00 63 1010.2
20260504210003 17 191 1.6 6.4 0.00 0.00 0.00 65 1010.4
20260504204644 17 195 1.6 6.4 0.00 0.00 0.00 67 1010.2
20260504203139 17 187 1.6 6.4 0.00 0.00 0.00 65 1010.2
20260504203002 17 310 1.6 6.4 0.00 0.00 0.00 64 1010.5
20260504201641 16 187 1.6 6.4 0.00 0.00 0.00 65 1010.3
20260504201502 16 57 1.6 6.4 0.00 0.00 0.00 64 1010.6
20260504200140 17 0 1.6 6.4 0.00 0.00 0.00 65 1010.4
20260504194639 18 201 1.6 6.4 0.00 0.00 0.00 56 1010.2
20260504193139 18 0 1.6 6.4 0.00 0.00 0.00 54 1010.3
20260504193002 18 34 1.6 6.4 0.00 0.00 0.00 54 1010.6
20260504191637 17 170 1.6 6.4 0.00 0.00 0.00 56 1010.5
20260504190137 17 0 1.6 4.8 0.00 0.00 0.00 57 1010.5
20260504184638 17 217 1.6 6.4 0.00 0.00 0.00 57 1010.6
20260504184502 17 0 1.6 6.4 0.00 0.00 0.00 56 1010.9
20260504183135 17 218 1.6 6.4 0.00 0.00 0.00 57 1010.5
20260504181637 16 188 1.6 6.4 0.00 0.00 0.00 62 1010.6
20260504180137 16 37 1.6 4.8 0.00 0.00 0.00 64 1010.6
20260504180002 16 221 1.6 4.8 0.00 0.00 0.00 63 1010.9
20260504174633 17 235 1.6 4.8 0.00 0.00 0.00 58 1010.6
20260504173133 17 0 1.6 6.4 0.00 0.00 0.00 58 1010.6
20260504171630 17 0 0.0 3.2 0.00 0.00 0.00 58 1010.7
20260504170130 17 0 0.0 3.2 0.00 0.00 0.00 57 1010.6
20260504160130 16 0 0.0 1.6 0.00 0.00 0.00 67 1010.6
20260504150127 14 0 0.0 3.2 0.00 0.00 0.00 76 1010.3
20260504140124 13 0 0.0 1.6 0.00 0.00 0.00 84 1009.6
20260504130124 12 300 0.0 3.2 0.00 0.00 0.00 87 1009.3
20260504120118 12 248 0.0 3.2 0.00 0.00 0.00 85 1009.2
20260504110114 14 0 0.0 3.2 0.00 0.00 0.00 75 1009.0
20260504100111 15 0 0.0 1.6 0.00 0.00 0.00 72 1008.9
20260504090105 16 0 0.0 3.2 0.00 0.00 0.00 70 1008.8
20260504081605 16 101 0.0 1.6 0.00 0.00 0.00 73 1008.8
20260504081502 16 0 0.0 1.6 0.00 0.00 0.00 73 1009.1
20260504080105 16 0 0.0 3.2 0.00 0.00 0.00 72 1008.8
20260504070109 16 0 0.0 3.2 0.00 0.00 0.00 68 1009.0
20260504044600 19 0 0.0 3.2 0.00 0.00 0.00 52 1009.4
20260504044502 19 0 0.0 1.6 0.00 0.00 0.00 51 1009.7
20260504043100 19 0 0.0 3.2 0.00 0.00 0.00 50 1009.4
20260504041602 19 166 0.0 1.6 0.00 0.00 0.00 51 1009.3
20260504041503 19 0 0.0 1.6 0.00 0.00 0.00 52 1009.6
20260504034558 20 0 0.0 1.6 0.00 0.00 0.00 48 1009.2
20260504033058 20 0 0.0 3.2 0.00 0.00 0.00 47 1009.2
20260504033005 20 287 0.0 3.2 0.00 0.00 0.00 47 1009.5
20260504031558 20 0 0.0 1.6 0.00 0.00 0.00 47 1009.2
20260504030052 20 0 0.0 1.6 0.00 0.00 0.00 45 1009.2
20260504030002 20 0 0.0 1.6 0.00 0.00 0.00 45 1009.5
20260504024554 20 0 0.0 3.2 0.00 0.00 0.00 47 1009.2
20260504024502 20 0 0.0 3.2 0.00 0.00 0.00 47 1009.5